Location: St. Louis
(38.6270°N, 90.1994°W)
Time: 06:12:36
(UTC-05:00)

N. Korean satellite - Visible Passes

Search period start: 28 March 2023 00:00
Search period end: 07 April 2023 00:00
Orbit: 391 x 417 km, 97.3° (Epoch: 27 March)

Date Brightness Start Highest point End Pass type
(mag) Time Alt. Az. Time Alt. Az. Time Alt. Az.
28 Mar 7.3 06:14:27 10° NNE 06:17:29 49° E 06:20:27 10° S visible
30 Mar 7.9 06:08:04 10° NNE 06:10:59 37° E 06:13:51 10° SSE visible
01 Apr 8.4 06:01:15 10° NE 06:04:00 29° E 06:06:42 10° SSE visible
03 Apr 8.9 05:54:01 10° NE 05:56:31 22° E 05:58:58 10° SSE visible
05 Apr 9.3 05:46:25 10° NE 05:48:31 17° E 05:50:38 10° SE visible
